Погода в Опухликах

Россия / Псковская область     56°05′33″N   30°09′23″E
темп.,
°C
ветер,
м/с
пор.,
м/с
влажн.,
%
обл.,
%
осадки,
мм/ч
давл.,
гПа
погр.,
м
8 мая, сб
сб800:00+7ю5995100 2.3 10041067
03:00+6ююз499392 3.3 1003645
06:00+3зсз3798100 0.1 1005400
09:00+4з3690100 0.1 1007548
12:00+5сз4678100 0.0 1008971
15:00+6зсз4668100 0.1 10091346
18:00+7сз385889 0.0 10101485
21:00+3сз397959 0.1 1011306
9 мая, вс
вс900:00+2зсз312875 0.0 1012514
03:000зсз311935 0.0 1015338
06:000зсз312843 0.0 1017357
09:00+6зсз47560 0.0 1019808
12:00+10сз574136 0.0 10202196
15:00+12зсз453780 0.0 10212329
18:00+12з244061 0.0 10221988
21:00+6юз227046 0.0 102428
10 мая, пн
пн1000:00+4ю387364 0.0 1025133
03:00+5ю3126784 0.0 1025314
06:00+6ю4126983 0.0 1026345
09:00+10ююз4106088 0.0 1026467
12:00+15ююз575062 0.0 10261056
15:00+17ююз465046 0.0 10261274
18:00+16ю35595 0.0 10261216
21:00+10ююв3885100 0.0 1027159
11 мая, вт
вт1100:00+8ю31089100 0.0 1028199
03:00+6ююв28895 0.0 1028146
06:00+6ююв39877 0.0 1029183
09:00+13ююв47565 0.0 1028483
12:00+17ююв464310 0.0 10281209
15:00+19ююв354325 0.0 10261362
18:00+18юв365365 0.0 10251251
21:00+12юв397726 0.0 1025184
12 мая, ср
ср1200:00+8юв278331 0.0 1025138
03:00+8юв258981 0.0 102584
06:00+8вюв23920 0.0 102580
09:00+15в36670 0.0 1024457
12:00+20в58500 0.0 10221208
15:00+19вюв6106692 0.3 10201304
18:00+16юв498526 1.5 10211026
21:00+11вюв24956 1.6 102183